Regional Weather Roundup
Issued by NWS

Home | Current Version | Previous Version | Text Only | Print | Product List | Glossary On
Versions: 1 2 3 4 5 6 7 8 9 10 11 12 13 14 15 16 17 18 19 20 21 22 23 24 25 26 27 28 29 30 31 32 33 34 35 36 37 38 39 40 41 42 43 44 45 46 47 48 49 50
000
ASUS43 KMKX 011210
RWRWI

WISCONSIN REGIONAL WEATHER ROUNDUP
NATIONAL WEATHER SERVICE MILWAUKEE/SULLIVAN WI
600 AM CST SUN MAR 01 2015

NOTE: "FAIR" INDICATES FEW OR NO CLOUDS BELOW 12,000 FEET WITH NO
SIGNIFICANT WEATHER AND/OR OBSTRUCTIONS TO VISIBILITY.

WIZ001-002-006>008-014>016-023>028-011300-
NORTHWEST WISCONSIN

CITY           SKY/WX    TMP DP  RH WIND       PRES   REMARKS
SUPERIOR ARPT  CLOUDY    14   8  78 SW8       30.18F WCI   3
6HR MIN TEMP:  12; 6HR MAX TEMP:  14;

ASHLAND        CLOUDY    13   8  81 S9        30.19F WCI   1
6HR MIN TEMP:  13; 6HR MAX TEMP:  14; 6HR PCP: TRACE;

HAYWARD        LGT SNOW  13   7  77 S9        30.18S WCI   1
6HR MIN TEMP:  11; 6HR MAX TEMP:  13; 6HR PCP: TRACE;

SIREN          FLURRIES  16  11  80 SW10G18   30.20S WCI   4
6HR MIN TEMP:  13; 6HR MAX TEMP:  17;

CUMBERLAND     FLURRIES  14  10  85 S7        30.19F WCI   4
RICE LAKE      FLURRIES  13   9  85 S7        30.23S WCI   3
6HR MIN TEMP:  11; 6HR MAX TEMP:  13;

CHETEK         FLURRIES  12   8  85 S3        30.22F
6HR MIN TEMP:  10; 6HR MAX TEMP:  12;

LADYSMITH      FLURRIES  10   6  85 S6        30.24R WCI   1
6HR MIN TEMP:  10; 6HR MAX TEMP:  13;

EAU CLAIRE     CLOUDY    13   8  81 S10       30.25F WCI   0
6HR MIN TEMP:  12; 6HR MAX TEMP:  13; 6HR PCP: TRACE;

MENOMONIE      MOCLDY    12   8  83 S3        30.25F
6HR MIN TEMP:  12; 6HR MAX TEMP:  14;

NEW RICHMOND   CLOUDY    15  11  85 S9        30.22F WCI   3
6HR MIN TEMP:  11; 6HR MAX TEMP:  15;

OSCEOLA        CLOUDY    16  12  86 SW5       30.25F WCI   8
6HR MIN TEMP:  11; 6HR MAX TEMP:  16;

$$

WIZ003>005-009-010-017-018-011300-
NORTH CENTRAL WISCONSIN

CITY           SKY/WX    TMP DP  RH WIND       PRES   REMARKS
MANITOWISH WTR LGT SNOW  10   5  81 SW8       30.15F WCI  -3
6HR MIN TEMP:   9; 6HR MAX TEMP:  10;

ARBOR VITAE    FLURRIES  11   6  77 S6        30.16F WCI   2
6HR MIN TEMP:  10; 6HR MAX TEMP:  11;

WOODRUFF       FLURRIES  11   6  77 S6        30.16F WCI   2
6HR MIN TEMP:  10; 6HR MAX TEMP:  11;

RHINELANDER    CLOUDY     8   1  73 SW8       30.19F WCI  -4
6HR MIN TEMP:   8; 6HR MAX TEMP:  11;

EAGLE RIVER    FLURRIES   9   1  69 SW6       30.16F WCI  -1
6HR MIN TEMP:   8; 6HR MAX TEMP:  11;

LAND O LAKES   FLURRIES   8   2  76 CALM      30.15F
6HR MIN TEMP:   8; 6HR MAX TEMP:  11;

PHILLIPS       FLURRIES   9   5  82 S7        30.18S WCI  -2
6HR MIN TEMP:   9; 6HR MAX TEMP:  10;

TOMAHAWK       LGT SNOW   9   3  77 CALM      30.21F
6HR MIN TEMP:   7; 6HR MAX TEMP:  10;

MEDFORD        FLURRIES   8   3  80 S7        30.21F WCI  -3
6HR MIN TEMP:   8; 6HR MAX TEMP:  10;

MERRILL        FLURRIES   9   2  75 CALM      30.23F
6HR MIN TEMP:   9; 6HR MAX TEMP:  12;

$$

WIZ029-030-035-036-043>047-011300-
CENTRAL WISCONSIN

CITY           SKY/WX    TMP DP  RH WIND       PRES   REMARKS
WAUSAU         MOCLDY     8   2  76 S3        30.25F
6HR MIN TEMP:   8; 6HR MAX TEMP:  12;

MOSINEE        MOCLDY     7   3  85 S7        30.27F WCI  -5
MARSHFIELD     CLOUDY     9   4  80 SW7       30.26F WCI  -2
6HR MIN TEMP:   9; 6HR MAX TEMP:  12;

STEVENS POINT  FLURRIES   8   3  82 SW5       30.29F WCI  -1
6HR MIN TEMP:   7; 6HR MAX TEMP:  11;

WAUPACA        PTCLDY     9   4  78 CALM      30.33F
6HR MIN TEMP:   9; 6HR MAX TEMP:  16;

WAUTOMA        PTCLDY     0  -4  82 CALM      30.33F
6HR MIN TEMP:   0; 6HR MAX TEMP:  14; 6HR PCP: TRACE;

WISC RAPIDS    MOCLDY     8   2  76 S3        30.30F
6HR MIN TEMP:   8; 6HR MAX TEMP:  13;

CAMP DOUGLAS   PTCLDY     8   7  95 SE2       30.31F
6HR MIN TEMP:   8; 6HR MAX TEMP:  12; 6HR PCP: TRACE;

$$

WIZ011>013-019>022-031-037>040-048>050-011300-
NORTHEAST WISCONSIN

CITY           SKY/WX    TMP DP  RH WIND       PRES   REMARKS
ANTIGO         CLOUDY     6   1  79 SW7       30.22F WCI  -6
6HR MIN TEMP:   6; 6HR MAX TEMP:  11;

SHAWANO        CLOUDY    11   3  68 SW5       30.32F WCI   3
6HR MIN TEMP:  11; 6HR MAX TEMP:  17;

OCONTO         CLEAR      9   2  75 S5        30.33F WCI   0
6HR MIN TEMP:   9; 6HR MAX TEMP:  15;

STURGEON BAY   CLEAR     10   3  72 SW9       30.34F WCI  -2
6HR MIN TEMP:  10; 6HR MAX TEMP:  16;

GREEN BAY      MOCLDY    11   7  84 SW3       30.34F
6HR MIN TEMP:  11; 6HR MAX TEMP:  15;

MANITOWOC      CLEAR     11   8  88 CALM      30.36F
6HR MIN TEMP:  11; 6HR MAX TEMP:  17; 6HR PCP: TRACE;

APPLETON       MOCLDY     9   3  78 SW7       30.33F WCI  -3
CLINTONVILLE   CLOUDY    10   3  72 SW5       30.32F WCI   2
OSHKOSH        PTCLDY     8   4  83 S5        30.33F WCI   0
6HR MIN TEMP:   7; 6HR MAX TEMP:  14; 6HR PCP: TRACE;

$$

WIZ032>034-041-042-053>061-011300-
SOUTHWEST WISCONSIN

CITY           SKY/WX    TMP DP  RH WIND       PRES   REMARKS
LA CROSSE      PTCLDY    10   6  84 S6        30.32F WCI   0
6HR MIN TEMP:   9; 6HR MAX TEMP:  14;

SPARTA         PTCLDY     3  -1  85 CALM      30.32F
6HR MIN TEMP:   3; 6HR MAX TEMP:  12;

VIROQUA        MOCLDY     8   6  92 S3        30.28S
6HR MIN TEMP:   6; 6HR MAX TEMP:  10;

BOSCOBEL       CLOUDY     4  -1  80 CALM      30.36S
6HR MIN TEMP:   3; 6HR MAX TEMP:   8;

PRAIRIE DU CHI MIX PCPN   9   4  80 CALM      30.36S
6HR MIN TEMP:   5; 6HR MAX TEMP:   9;

PLATTEVILLE    CLOUDY    11   9  90 S3        30.33F VSB 1/4
6HR MIN TEMP:   8; 6HR MAX TEMP:  12;

$$

WIZ056-057-062-063-064-067-068-011300-
SOUTH CENTRAL WISCONSIN

CITY           SKY/WX    TMP DP  RH WIND       PRES   REMARKS
REEDSBURG      FLURRIES  11   8  87 SW5       30.32F WCI   3
6HR MIN TEMP:   8; 6HR MAX TEMP:  11;

BARABOO/DELLS  MOCLDY    10   8  88 CALM      30.31F
6HR MIN TEMP:   9; 6HR MAX TEMP:  11;

LONE ROCK      PTCLDY     6   2  83 CALM      30.35F
6HR MIN TEMP:   6; 6HR MAX TEMP:  12; 6HR PCP: TRACE;

MINERAL POINT  LGT SNOW  14  12  92 CALM      30.31S
MADISON        FLURRIES  15  10  80 CALM      30.33F
6HR MIN TEMP:  14; 6HR MAX TEMP:  15; 6HR PCP: TRACE;

MIDDLETON      CLOUDY    16  11  82 SW3       30.34S
6HR MIN TEMP:  15; 6HR MAX TEMP:  16;

WATERTOWN      FLURRIES  12  11  94 CALM      30.34F
6HR MIN TEMP:  11; 6HR MAX TEMP:  13;

MONROE         CLOUDY    16  14  93 SW5       30.32F FOG     WCI   9
JANESVILLE     NOT AVBL
$$

WIZ051-052-058>065-066-070>072-011300-
SOUTHEAST WISCONSIN

CITY           SKY/WX    TMP DP  RH WIND       PRES   REMARKS
MILWAUKEE      CLOUDY    14  10  84 CALM      30.37S
6HR MIN TEMP:  12; 6HR MAX TEMP:  17; 6HR PCP: TRACE;

WAUKESHA       CLEAR      7   5  92 CALM      30.35F FOG
MILWAUKEE/TIMM PTCLDY    12  10  92 CALM      30.37S
RACINE         CLOUDY    14  11  87 SW3       30.39S
6HR MIN TEMP:   6; 6HR MAX TEMP:  18; 6HR PCP: TRACE;

BURLINGTON     LGT SNOW   9   7  91 CALM      30.36F
6HR MIN TEMP:   3; 6HR MAX TEMP:  14;

KENOSHA        CLOUDY    13  10  88 SW3       30.37F FOG
6HR MIN TEMP:   3; 6HR MAX TEMP:  17; 6HR PCP: TRACE;

FOND DU LAC    PTCLDY     9   6  88 S5        30.34F WCI   1
6HR MIN TEMP:   9; 6HR MAX TEMP:  15; 6HR PCP: TRACE;

SHEBOYGAN      MOCLDY    11   8  88 SW3       30.34F
6HR MIN TEMP:   9; 6HR MAX TEMP:  16; 6HR PCP: TRACE;

WEST BEND      PTCLDY    14  10  85 SW3       30.33F
JUNEAU         PTCLDY    11   9  91 CALM      30.34F FOG
6HR MIN TEMP:  10; 6HR MAX TEMP:  13;

$$

LSZ147-162-011300-
LAKE SUPERIOR

STATION/POSITION TIME  TEMP    WIND        PRES    WAVE
                       AIR SEA DIR/SP/G            HT/PER
                 (UTC) (F)     (DEG/KT/KT) (MB)    (FT/S)
DEVILS ISLAND    1200   16     230/ 15/ 19 1022.9F
PORT WING        1100   15     200/  6/ 13 1022.4F
SAXON HARBOR     1100   16     200/  9/ 17 1022.7
$$

LMZ867-665-643>646-011300-
LAKE MICHIGAN

STATION/POSITION TIME  TEMP    WIND        PRES    WAVE


USA.gov is the U.S. government's official web portal to all federal, state and local government web resources and services.